Time,TemperatureF,DewpointF,PressureIn,WindDirection,WindDirectionDegrees,WindSpeedMPH,WindSpeedGustMPH,Humidity,HourlyPrecipIn,Conditions,Clouds,dailyrainin,SoftwareType,DateUTC
2013-10-10 00:00:00,50.6,49.8,30.15,North,5,0.0,3.0,97,0.00,,BKN055,0.01,VWS V14.00,2013-10-10 04:00:00,
2013-10-10 00:01:00,49.0,48.2,30.14,North,360,0.0,2.0,97,0.00,,BKN055,0.00,VWS V14.00,2013-10-10 04:01:00,
2013-10-10 00:10:00,50.3,49.5,30.15,North,360,0.0,2.0,97,0.00,,BKN055,0.01,VWS V14.00,2013-10-10 04:10:00,
2013-10-10 00:11:00,48.6,47.8,30.14,North,5,0.0,2.0,97,0.00,,BKN055,0.00,VWS V14.00,2013-10-10 04:11:00,
2013-10-10 00:20:00,50.1,49.3,30.15,North,5,0.0,0.0,97,0.00,,BKN055,0.01,VWS V14.00,2013-10-10 04:20:00,
2013-10-10 00:21:00,48.3,47.5,30.14,North,5,0.0,0.0,97,0.00,,BKN055,0.00,VWS V14.00,2013-10-10 04:21:00,
2013-10-10 00:30:00,49.8,49.0,30.15,North,360,0.0,0.0,97,0.00,,BKN055,0.01,VWS V14.00,2013-10-10 04:30:00,
2013-10-10 00:31:00,48.1,47.6,30.14,North,5,0.0,1.0,98,0.00,,BKN055,0.00,VWS V14.00,2013-10-10 04:31:00,
2013-10-10 00:40:00,49.5,48.7,30.15,North,5,1.0,1.0,97,0.00,,BKN055,0.01,VWS V14.00,2013-10-10 04:40:00,
2013-10-10 00:41:00,47.9,47.1,30.14,North,5,2.0,2.0,97,0.00,,BKN055,0.00,VWS V14.00,2013-10-10 04:41:00,
2013-10-10 00:50:00,49.2,48.4,30.15,North,360,0.0,2.0,97,0.00,,BKN055,0.01,VWS V14.00,2013-10-10 04:50:00,
2013-10-10 00:51:00,47.7,47.2,30.14,North,355,0.0,3.0,98,0.00,,BKN055,0.00,VWS V14.00,2013-10-10 04:51:00,
2013-10-10 01:00:00,49.0,48.2,30.14,North,360,0.0,2.0,97,0.00,,BKN055,0.00,VWS V14.00,2013-10-10 05:00:00,
2013-10-10 01:01:00,47.4,46.9,30.14,North,355,0.0,0.0,98,0.00,,BKN055,0.00,VWS V14.00,2013-10-10 05:01:00,
2013-10-10 01:10:00,48.6,47.8,30.14,North,5,0.0,2.0,97,0.00,,BKN055,0.00,VWS V14.00,2013-10-10 05:10:00,
2013-10-10 01:11:00,47.1,46.6,30.13,North,355,0.0,1.0,98,0.00,,BKN055,0.00,VWS V14.00,2013-10-10 05:11:00,
2013-10-10 01:20:00,48.3,47.5,30.14,North,5,0.0,0.0,97,0.00,,BKN055,0.00,VWS V14.00,2013-10-10 05:20:00,
2013-10-10 01:21:00,47.0,46.5,30.13,NNW,337,0.0,2.0,98,0.00,,BKN055,0.00,VWS V14.00,2013-10-10 05:21:00,
2013-10-10 01:30:00,48.1,47.6,30.14,North,5,0.0,1.0,98,0.00,,BKN055,0.00,VWS V14.00,2013-10-10 05:30:00,
2013-10-10 01:31:00,46.8,46.3,30.13,NNW,340,0.0,1.0,98,0.00,,BKN055,0.00,VWS V14.00,2013-10-10 05:31:00,
2013-10-10 01:40:00,47.9,47.1,30.14,North,5,2.0,2.0,97,0.00,,BKN055,0.00,VWS V14.00,2013-10-10 05:40:00,
2013-10-10 01:41:00,46.5,46.0,30.13,NNW,340,1.0,1.0,98,0.00,,BKN055,0.00,VWS V14.00,2013-10-10 05:41:00,
2013-10-10 01:50:00,47.7,47.2,30.14,North,355,0.0,3.0,98,0.00,,BKN055,0.00,VWS V14.00,2013-10-10 05:50:00,
2013-10-10 01:51:00,46.4,45.9,30.13,NNW,341,0.0,3.0,98,0.00,,BKN055,0.00,VWS V14.00,2013-10-10 05:51:00,
2013-10-10 02:00:00,47.4,46.9,30.14,North,355,0.0,0.0,98,0.00,,BKN055,0.00,VWS V14.00,2013-10-10 06:00:00,
2013-10-10 02:01:00,46.2,45.7,30.13,NNW,338,0.0,1.0,98,0.00,,BKN055,0.00,VWS V14.00,2013-10-10 06:01:00,
2013-10-10 02:10:00,47.1,46.6,30.13,North,355,0.0,1.0,98,0.00,,BKN055,0.00,VWS V14.00,2013-10-10 06:10:00,
2013-10-10 02:11:00,46.0,45.5,30.14,NNW,341,0.0,1.0,98,0.00,,BKN055,0.00,VWS V14.00,2013-10-10 06:11:00,
2013-10-10 02:20:00,47.0,46.5,30.13,NNW,337,0.0,2.0,98,0.00,,BKN055,0.00,VWS V14.00,2013-10-10 06:20:00,
2013-10-10 02:21:00,45.8,45.3,30.14,NNW,340,0.0,2.0,98,0.00,,BKN055,0.00,VWS V14.00,2013-10-10 06:21:00,
2013-10-10 02:30:00,46.8,46.3,30.13,NNW,340,0.0,1.0,98,0.00,,BKN055,0.00,VWS V14.00,2013-10-10 06:30:00,
2013-10-10 02:31:00,45.7,45.2,30.13,NNW,340,0.0,0.0,98,0.00,,BKN055,0.00,VWS V14.00,2013-10-10 06:31:00,
2013-10-10 02:40:00,46.5,46.0,30.13,NNW,340,1.0,1.0,98,0.00,,BKN055,0.00,VWS V14.00,2013-10-10 06:40:00,
2013-10-10 02:41:00,45.3,44.8,30.13,NNW,340,0.0,0.0,98,0.00,,BKN055,0.00,VWS V14.00,2013-10-10 06:41:00,
2013-10-10 02:50:00,46.4,45.9,30.13,NNW,341,0.0,3.0,98,0.00,,BKN055,0.00,VWS V14.00,2013-10-10 06:50:00,
2013-10-10 02:51:00,45.2,44.7,30.13,NNW,342,0.0,3.0,98,0.00,,BKN055,0.00,VWS V14.00,2013-10-10 06:51:00,
2013-10-10 03:00:00,46.2,45.7,30.13,NNW,338,0.0,1.0,98,0.00,,BKN055,0.00,VWS V14.00,2013-10-10 07:00:00,
2013-10-10 03:01:00,45.0,44.5,30.14,NNW,341,0.0,0.0,98,0.00,,BKN055,0.00,VWS V14.00,2013-10-10 07:01:00,
2013-10-10 03:10:00,46.0,45.5,30.14,NNW,341,0.0,1.0,98,0.00,,BKN055,0.00,VWS V14.00,2013-10-10 07:10:00,
2013-10-10 03:11:00,45.0,44.5,30.14,NNW,341,0.0,1.0,98,0.00,,BKN055,0.00,VWS V14.00,2013-10-10 07:11:00,
2013-10-10 03:20:00,45.8,45.3,30.14,NNW,340,0.0,2.0,98,0.00,,BKN055,0.00,VWS V14.00,2013-10-10 07:20:00,
2013-10-10 03:21:00,45.0,44.5,30.14,NNW,340,0.0,3.0,98,0.00,,BKN055,0.00,VWS V14.00,2013-10-10 07:21:00,
2013-10-10 03:30:00,45.7,45.2,30.13,NNW,340,0.0,0.0,98,0.00,,BKN055,0.00,VWS V14.00,2013-10-10 07:30:00,
2013-10-10 03:31:00,44.9,44.4,30.13,NNW,342,0.0,1.0,98,0.00,,BKN055,0.00,VWS V14.00,2013-10-10 07:31:00,
2013-10-10 03:40:00,45.3,44.8,30.13,NNW,340,0.0,0.0,98,0.00,,BKN055,0.00,VWS V14.00,2013-10-10 07:40:00,
2013-10-10 03:41:00,44.6,44.1,30.13,NNW,342,0.0,1.0,98,0.00,,BKN055,0.00,VWS V14.00,2013-10-10 07:41:00,
2013-10-10 03:50:00,45.2,44.7,30.13,NNW,342,0.0,3.0,98,0.00,,BKN055,0.00,VWS V14.00,2013-10-10 07:50:00,
2013-10-10 03:51:00,44.5,44.0,30.13,NNW,344,0.0,2.0,98,0.00,,BKN055,0.00,VWS V14.00,2013-10-10 07:51:00,
2013-10-10 04:00:00,45.0,44.5,30.14,NNW,341,0.0,0.0,98,0.00,,BKN055,0.00,VWS V14.00,2013-10-10 08:00:00,
2013-10-10 04:01:00,44.2,43.7,30.13,NNW,344,0.0,2.0,98,0.00,,BKN055,0.00,VWS V14.00,2013-10-10 08:01:00,
2013-10-10 04:10:00,45.0,44.5,30.14,NNW,341,0.0,1.0,98,0.00,,BKN055,0.00,VWS V14.00,2013-10-10 08:10:00,
2013-10-10 04:11:00,44.1,43.6,30.13,NNW,344,0.0,0.0,98,0.00,,BKN055,0.00,VWS V14.00,2013-10-10 08:11:00,
2013-10-10 04:20:00,45.0,44.5,30.14,NNW,340,0.0,3.0,98,0.00,,BKN055,0.00,VWS V14.00,2013-10-10 08:20:00,
2013-10-10 04:21:00,43.9,43.4,30.13,NNW,344,0.0,0.0,98,0.00,,BKN055,0.00,VWS V14.00,2013-10-10 08:21:00,
2013-10-10 04:30:00,44.9,44.4,30.13,NNW,342,0.0,1.0,98,0.00,,BKN055,0.00,VWS V14.00,2013-10-10 08:30:00,
2013-10-10 04:31:00,44.1,43.6,30.14,NNW,342,0.0,2.0,98,0.00,,BKN055,0.00,VWS V14.00,2013-10-10 08:31:00,
2013-10-10 04:40:00,44.6,44.1,30.13,NNW,342,0.0,1.0,98,0.00,,BKN055,0.00,VWS V14.00,2013-10-10 08:40:00,
2013-10-10 04:41:00,44.1,43.6,30.14,NNW,342,0.0,3.0,98,0.01,,BKN055,0.01,VWS V14.00,2013-10-10 08:41:00,
2013-10-10 04:50:00,44.5,44.0,30.13,NNW,344,0.0,2.0,98,0.00,,BKN055,0.00,VWS V14.00,2013-10-10 08:50:00,
2013-10-10 04:51:00,44.2,43.7,30.14,NNW,342,0.0,3.0,98,0.01,,BKN055,0.01,VWS V14.00,2013-10-10 08:51:00,
2013-10-10 05:00:00,44.2,43.7,30.13,NNW,344,0.0,2.0,98,0.00,,BKN055,0.00,VWS V14.00,2013-10-10 09:00:00,
2013-10-10 05:01:00,43.8,43.3,30.14,NNW,345,0.0,1.0,98,0.01,,BKN055,0.01,VWS V14.00,2013-10-10 09:01:00,
2013-10-10 05:10:00,44.1,43.6,30.13,NNW,344,0.0,0.0,98,0.00,,BKN055,0.00,VWS V14.00,2013-10-10 09:10:00,
2013-10-10 05:11:00,43.4,42.9,30.14,NNW,345,0.0,0.0,98,0.01,,BKN055,0.01,VWS V14.00,2013-10-10 09:11:00,
2013-10-10 05:20:00,43.9,43.4,30.13,NNW,344,0.0,0.0,98,0.00,,BKN055,0.00,VWS V14.00,2013-10-10 09:20:00,
2013-10-10 05:21:00,43.1,42.6,30.15,NNW,346,0.0,0.0,98,0.01,,BKN055,0.01,VWS V14.00,2013-10-10 09:21:00,
2013-10-10 05:30:00,44.1,43.6,30.14,NNW,342,0.0,2.0,98,0.00,,BKN055,0.00,VWS V14.00,2013-10-10 09:30:00,
2013-10-10 05:31:00,43.1,42.6,30.15,NNW,344,0.0,3.0,98,0.01,,BKN055,0.01,VWS V14.00,2013-10-10 09:31:00,
2013-10-10 05:40:00,44.1,43.6,30.14,NNW,342,0.0,3.0,98,0.01,,BKN055,0.01,VWS V14.00,2013-10-10 09:40:00,
2013-10-10 05:41:00,43.2,42.9,30.15,NNW,344,0.0,0.0,99,0.01,,BKN055,0.01,VWS V14.00,2013-10-10 09:41:00,
2013-10-10 05:50:00,44.2,43.7,30.14,NNW,342,0.0,3.0,98,0.01,,BKN055,0.01,VWS V14.00,2013-10-10 09:50:00,
2013-10-10 05:51:00,43.3,43.0,30.15,NNW,344,0.0,3.0,99,0.00,,BKN055,0.01,VWS V14.00,2013-10-10 09:51:00,
2013-10-10 06:00:00,43.8,43.3,30.14,NNW,345,0.0,1.0,98,0.01,,BKN055,0.01,VWS V14.00,2013-10-10 10:00:00,
2013-10-10 06:01:00,43.1,42.8,30.15,NNW,343,0.0,3.0,99,0.00,,BKN055,0.01,VWS V14.00,2013-10-10 10:01:00,
2013-10-10 06:10:00,43.4,42.9,30.14,NNW,345,0.0,0.0,98,0.01,,BKN055,0.01,VWS V14.00,2013-10-10 10:10:00,
2013-10-10 06:11:00,42.8,42.3,30.15,NNW,343,0.0,0.0,98,0.00,,BKN055,0.01,VWS V14.00,2013-10-10 10:11:00,
2013-10-10 06:20:00,43.1,42.6,30.15,NNW,346,0.0,0.0,98,0.01,,BKN055,0.01,VWS V14.00,2013-10-10 10:20:00,
2013-10-10 06:21:00,42.5,42.0,30.15,NNW,343,0.0,0.0,98,0.00,,BKN055,0.01,VWS V14.00,2013-10-10 10:21:00,
2013-10-10 06:30:00,43.1,42.6,30.15,NNW,344,0.0,3.0,98,0.01,,BKN055,0.01,VWS V14.00,2013-10-10 10:30:00,
2013-10-10 06:31:00,42.4,41.9,30.16,NNW,343,0.0,2.0,98,0.00,,BKN055,0.01,VWS V14.00,2013-10-10 10:31:00,
2013-10-10 06:40:00,43.2,42.9,30.15,NNW,344,0.0,0.0,99,0.01,,BKN055,0.01,VWS V14.00,2013-10-10 10:40:00,
2013-10-10 06:41:00,42.4,41.9,30.16,NNW,342,0.0,0.0,98,0.00,,BKN055,0.01,VWS V14.00,2013-10-10 10:41:00,
2013-10-10 06:50:00,43.3,43.0,30.15,NNW,344,0.0,3.0,99,0.00,,BKN055,0.01,VWS V14.00,2013-10-10 10:50:00,
2013-10-10 06:51:00,42.4,41.9,30.16,NNW,343,0.0,2.0,98,0.00,,BKN055,0.01,VWS V14.00,2013-10-10 10:51:00,
2013-10-10 07:00:00,43.1,42.8,30.15,NNW,343,0.0,3.0,99,0.00,,BKN055,0.01,VWS V14.00,2013-10-10 11:00:00,
2013-10-10 07:01:00,42.3,41.8,30.16,NNW,343,0.0,0.0,98,0.00,,BKN055,0.01,VWS V14.00,2013-10-10 11:01:00,
2013-10-10 07:10:00,42.8,42.3,30.15,NNW,343,0.0,0.0,98,0.00,,BKN055,0.01,VWS V14.00,2013-10-10 11:10:00,
2013-10-10 07:11:00,42.4,42.1,30.16,NNW,344,0.0,2.0,99,0.00,,BKN055,0.01,VWS V14.00,2013-10-10 11:11:00,
2013-10-10 07:20:00,42.5,42.0,30.15,NNW,343,0.0,0.0,98,0.00,,BKN055,0.01,VWS V14.00,2013-10-10 11:20:00,
2013-10-10 07:21:00,42.4,41.9,30.16,NNW,345,0.0,0.0,98,0.00,,BKN055,0.01,VWS V14.00,2013-10-10 11:21:00,
2013-10-10 07:30:00,42.4,41.9,30.16,NNW,343,0.0,2.0,98,0.00,,BKN055,0.01,VWS V14.00,2013-10-10 11:30:00,
2013-10-10 07:31:00,42.4,42.1,30.15,NNW,341,0.0,3.0,99,0.00,,BKN055,0.01,VWS V14.00,2013-10-10 11:31:00,
2013-10-10 07:40:00,42.4,41.9,30.16,NNW,342,0.0,0.0,98,0.00,,BKN055,0.01,VWS V14.00,2013-10-10 11:40:00,
2013-10-10 07:41:00,42.2,41.9,30.16,NNW,340,0.0,3.0,99,0.00,,BKN055,0.01,VWS V14.00,2013-10-10 11:41:00,
2013-10-10 07:50:00,42.4,41.9,30.16,NNW,343,0.0,2.0,98,0.00,,BKN055,0.01,VWS V14.00,2013-10-10 11:50:00,
2013-10-10 07:51:00,42.2,41.9,30.16,NNW,333,2.0,4.0,99,0.00,,BKN055,0.01,VWS V14.00,2013-10-10 11:51:00,
2013-10-10 08:00:00,42.3,41.8,30.16,NNW,343,0.0,0.0,98,0.00,,BKN055,0.01,VWS V14.00,2013-10-10 12:00:00,
2013-10-10 08:01:00,42.2,41.9,30.16,NNW,335,0.0,2.0,99,0.00,,BKN055,0.01,VWS V14.00,2013-10-10 12:01:00,
2013-10-10 08:10:00,42.4,42.1,30.16,NNW,344,0.0,2.0,99,0.00,,BKN055,0.01,VWS V14.00,2013-10-10 12:10:00,
2013-10-10 08:11:00,41.9,41.4,30.16,NNW,335,0.0,0.0,98,0.00,,BKN055,0.01,VWS V14.00,2013-10-10 12:11:00,
2013-10-10 08:20:00,42.4,41.9,30.16,NNW,345,0.0,0.0,98,0.00,,BKN055,0.01,VWS V14.00,2013-10-10 12:20:00,
2013-10-10 08:21:00,41.8,41.3,30.16,NNW,336,0.0,3.0,98,0.00,,BKN055,0.01,VWS V14.00,2013-10-10 12:21:00,
2013-10-10 08:30:00,42.4,42.1,30.15,NNW,341,0.0,3.0,99,0.00,,BKN055,0.01,VWS V14.00,2013-10-10 12:30:00,
2013-10-10 08:31:00,41.8,41.3,30.16,NNW,337,0.0,0.0,98,0.00,,BKN055,0.01,VWS V14.00,2013-10-10 12:31:00,
2013-10-10 08:40:00,42.2,41.9,30.16,NNW,340,0.0,3.0,99,0.00,,BKN055,0.01,VWS V14.00,2013-10-10 12:40:00,
2013-10-10 08:41:00,42.2,41.9,30.16,NNW,337,0.0,2.0,99,0.00,,BKN055,0.01,VWS V14.00,2013-10-10 12:41:00,
2013-10-10 08:50:00,42.2,41.9,30.16,NNW,333,2.0,4.0,99,0.00,,BKN055,0.01,VWS V14.00,2013-10-10 12:50:00,
2013-10-10 08:51:00,42.8,42.5,30.16,NNW,337,0.0,0.0,99,0.00,,BKN055,0.01,VWS V14.00,2013-10-10 12:51:00,
2013-10-10 09:00:00,42.2,41.9,30.16,NNW,335,0.0,2.0,99,0.00,,BKN055,0.01,VWS V14.00,2013-10-10 13:00:00,
2013-10-10 09:01:00,43.3,43.0,30.17,NNW,337,0.0,1.0,99,0.00,,BKN055,0.01,VWS V14.00,2013-10-10 13:01:00,
2013-10-10 09:10:00,41.9,41.4,30.16,NNW,335,0.0,0.0,98,0.00,,BKN055,0.01,VWS V14.00,2013-10-10 13:10:00,
2013-10-10 09:11:00,44.0,43.7,30.17,NNW,338,0.0,2.0,99,0.00,,BKN055,0.01,VWS V14.00,2013-10-10 13:11:00,
2013-10-10 09:20:00,41.8,41.3,30.16,NNW,336,0.0,3.0,98,0.00,,BKN055,0.01,VWS V14.00,2013-10-10 13:20:00,
2013-10-10 09:21:00,45.1,44.8,30.17,NNW,338,0.0,0.0,99,0.00,,BKN055,0.01,VWS V14.00,2013-10-10 13:21:00,
2013-10-10 09:30:00,41.8,41.3,30.16,NNW,337,0.0,0.0,98,0.00,,BKN055,0.01,VWS V14.00,2013-10-10 13:30:00,
2013-10-10 09:31:00,46.4,46.4,30.17,NNW,338,0.0,0.0,100,0.00,,BKN055,0.01,VWS V14.00,2013-10-10 13:31:00,
2013-10-10 09:40:00,42.2,41.9,30.16,NNW,337,0.0,2.0,99,0.00,,BKN055,0.01,VWS V14.00,2013-10-10 13:40:00,
2013-10-10 09:41:00,47.9,47.9,30.17,NNW,338,0.0,0.0,100,0.00,,BKN055,0.01,VWS V14.00,2013-10-10 13:41:00,
2013-10-10 09:50:00,42.8,42.5,30.16,NNW,337,0.0,0.0,99,0.00,,BKN055,0.01,VWS V14.00,2013-10-10 13:50:00,
2013-10-10 09:51:00,49.6,49.6,30.18,NNW,338,0.0,0.0,100,0.00,,BKN055,0.01,VWS V14.00,2013-10-10 13:51:00,
2013-10-10 10:00:00,43.3,43.0,30.17,NNW,337,0.0,1.0,99,0.00,,BKN055,0.01,VWS V14.00,2013-10-10 14:00:00,
2013-10-10 10:01:00,50.9,50.9,30.17,NNW,338,0.0,0.0,100,0.00,,BKN055,0.01,VWS V14.00,2013-10-10 14:01:00,
2013-10-10 10:10:00,44.0,43.7,30.17,NNW,338,0.0,2.0,99,0.00,,BKN055,0.01,VWS V14.00,2013-10-10 14:10:00,
2013-10-10 10:11:00,52.8,52.8,30.18,NNW,338,0.0,0.0,100,0.00,,BKN055,0.01,VWS V14.00,2013-10-10 14:11:00,
2013-10-10 10:20:00,45.1,44.8,30.17,NNW,338,0.0,0.0,99,0.00,,BKN055,0.01,VWS V14.00,2013-10-10 14:20:00,
2013-10-10 10:21:00,54.4,54.4,30.18,NNW,338,0.0,0.0,100,0.00,,BKN055,0.01,VWS V14.00,2013-10-10 14:21:00,
2013-10-10 10:30:00,46.4,46.4,30.17,NNW,338,0.0,0.0,100,0.00,,BKN055,0.01,VWS V14.00,2013-10-10 14:30:00,
2013-10-10 10:31:00,56.3,54.9,30.18,NNW,338,0.0,0.0,95,0.00,,BKN055,0.01,VWS V14.00,2013-10-10 14:31:00,
2013-10-10 10:40:00,47.9,47.9,30.17,NNW,338,0.0,0.0,100,0.00,,BKN055,0.01,VWS V14.00,2013-10-10 14:40:00,
2013-10-10 10:41:00,57.5,54.6,30.18,NNW,338,0.0,0.0,90,0.00,,BKN055,0.01,VWS V14.00,2013-10-10 14:41:00,
2013-10-10 10:50:00,49.6,49.6,30.18,NNW,338,0.0,0.0,100,0.00,,BKN055,0.01,VWS V14.00,2013-10-10 14:50:00,
2013-10-10 10:51:00,58.6,55.1,30.18,NNW,339,0.0,1.0,88,0.00,,BKN055,0.01,VWS V14.00,2013-10-10 14:51:00,
2013-10-10 11:00:00,50.9,50.9,30.17,NNW,338,0.0,0.0,100,0.00,,BKN055,0.01,VWS V14.00,2013-10-10 15:00:00,
2013-10-10 11:01:00,59.0,54.2,30.18,NNW,338,0.0,1.0,84,0.00,,BKN055,0.01,VWS V14.00,2013-10-10 15:01:00,
2013-10-10 11:10:00,52.8,52.8,30.18,NNW,338,0.0,0.0,100,0.00,,BKN055,0.01,VWS V14.00,2013-10-10 15:10:00,
2013-10-10 11:11:00,59.9,53.7,30.17,NNW,343,0.0,2.0,80,0.00,,BKN055,0.01,VWS V14.00,2013-10-10 15:11:00,
2013-10-10 11:20:00,54.4,54.4,30.18,NNW,338,0.0,0.0,100,0.00,,BKN055,0.01,VWS V14.00,2013-10-10 15:20:00,
2013-10-10 11:21:00,61.2,52.9,30.17,NE,46,0.0,2.0,74,0.00,,BKN055,0.01,VWS V14.00,2013-10-10 15:21:00,
2013-10-10 11:30:00,56.3,54.9,30.18,NNW,338,0.0,0.0,95,0.00,,BKN055,0.01,VWS V14.00,2013-10-10 15:30:00,
2013-10-10 11:31:00,62.7,54.3,30.17,NE,47,0.0,0.0,74,0.00,,BKN055,0.01,VWS V14.00,2013-10-10 15:31:00,
2013-10-10 11:40:00,57.5,54.6,30.18,NNW,338,0.0,0.0,90,0.00,,BKN055,0.01,VWS V14.00,2013-10-10 15:40:00,
2013-10-10 11:41:00,64.3,55.5,30.17,WNW,288,0.0,0.0,73,0.00,,BKN055,0.01,VWS V14.00,2013-10-10 15:41:00,
2013-10-10 11:50:00,58.6,55.1,30.18,NNW,339,0.0,1.0,88,0.00,,BKN055,0.01,VWS V14.00,2013-10-10 15:50:00,
2013-10-10 11:51:00,65.2,54.0,30.17,WNW,302,0.0,1.0,67,0.00,,BKN055,0.01,VWS V14.00,2013-10-10 15:51:00,
2013-10-10 12:00:00,59.0,54.2,30.18,NNW,338,0.0,1.0,84,0.00,,BKN055,0.01,VWS V14.00,2013-10-10 16:00:00,
2013-10-10 12:01:00,66.3,54.6,30.17,SSW,202,0.0,2.0,66,0.00,,BKN055,0.01,VWS V14.00,2013-10-10 16:01:00,
2013-10-10 12:10:00,59.9,53.7,30.17,NNW,343,0.0,2.0,80,0.00,,BKN055,0.01,VWS V14.00,2013-10-10 16:10:00,
2013-10-10 12:11:00,67.0,56.1,30.17,SSW,192,0.0,2.0,68,0.00,,BKN055,0.01,VWS V14.00,2013-10-10 16:11:00,
2013-10-10 12:20:00,61.2,52.9,30.17,NE,46,0.0,2.0,74,0.00,,BKN055,0.01,VWS V14.00,2013-10-10 16:20:00,
2013-10-10 12:21:00,67.9,54.8,30.16,SSW,192,0.0,0.0,63,0.00,,BKN055,0.01,VWS V14.00,2013-10-10 16:21:00,
2013-10-10 12:30:00,62.7,54.3,30.17,NE,47,0.0,0.0,74,0.00,,BKN055,0.01,VWS V14.00,2013-10-10 16:30:00,
2013-10-10 12:31:00,68.8,53.0,30.16,WNW,283,0.0,3.0,57,0.00,,BKN055,0.01,VWS V14.00,2013-10-10 16:31:00,
2013-10-10 12:40:00,64.3,55.5,30.17,WNW,288,0.0,0.0,73,0.00,,BKN055,0.01,VWS V14.00,2013-10-10 16:40:00,
2013-10-10 12:41:00,69.9,53.5,30.16,East,79,0.0,1.0,56,0.00,,BKN055,0.01,VWS V14.00,2013-10-10 16:41:00,
2013-10-10 12:50:00,65.2,54.0,30.17,WNW,302,0.0,1.0,67,0.00,,BKN055,0.01,VWS V14.00,2013-10-10 16:50:00,
2013-10-10 12:51:00,70.7,54.7,30.16,SSE,156,0.0,3.0,57,0.00,,BKN055,0.01,VWS V14.00,2013-10-10 16:51:00,
2013-10-10 13:00:00,66.3,54.6,30.17,SSW,202,0.0,2.0,66,0.00,,BKN055,0.01,VWS V14.00,2013-10-10 17:00:00,
2013-10-10 13:01:00,71.0,53.5,30.15,SSE,148,0.0,3.0,54,0.00,,BKN055,0.01,VWS V14.00,2013-10-10 17:01:00,
2013-10-10 13:10:00,67.0,56.1,30.17,SSW,192,0.0,2.0,68,0.00,,BKN055,0.01,VWS V14.00,2013-10-10 17:10:00,
2013-10-10 13:11:00,70.9,55.4,30.15,SE,138,0.0,1.0,58,0.00,,BKN055,0.01,VWS V14.00,2013-10-10 17:11:00,
2013-10-10 13:20:00,67.9,54.8,30.16,SSW,192,0.0,0.0,63,0.00,,BKN055,0.01,VWS V14.00,2013-10-10 17:20:00,
2013-10-10 13:21:00,71.1,55.6,30.14,SE,140,0.0,3.0,58,0.00,,BKN055,0.01,VWS V14.00,2013-10-10 17:21:00,
2013-10-10 13:30:00,68.8,53.0,30.16,WNW,283,0.0,3.0,57,0.00,,BKN055,0.01,VWS V14.00,2013-10-10 17:30:00,
2013-10-10 13:31:00,71.9,52.8,30.14,SSE,149,0.0,1.0,51,0.00,,BKN055,0.01,VWS V14.00,2013-10-10 17:31:00,
2013-10-10 13:40:00,69.9,53.5,30.16,East,79,0.0,1.0,56,0.00,,BKN055,0.01,VWS V14.00,2013-10-10 17:40:00,
2013-10-10 13:41:00,72.0,52.9,30.13,East,97,0.0,1.0,51,0.00,,BKN055,0.01,VWS V14.00,2013-10-10 17:41:00,
2013-10-10 13:50:00,70.7,54.7,30.16,SSE,156,0.0,3.0,57,0.00,,BKN055,0.01,VWS V14.00,2013-10-10 17:50:00,
2013-10-10 13:51:00,72.3,53.7,30.13,South,179,0.0,0.0,52,0.00,,BKN055,0.01,VWS V14.00,2013-10-10 17:51:00,
2013-10-10 14:00:00,71.0,53.5,30.15,SSE,148,0.0,3.0,54,0.00,,BKN055,0.01,VWS V14.00,2013-10-10 18:00:00,
2013-10-10 14:01:00,72.6,51.8,30.12,ENE,63,0.0,4.0,48,0.00,,BKN055,0.01,VWS V14.00,2013-10-10 18:01:00,
2013-10-10 14:10:00,70.9,55.4,30.15,SE,138,0.0,1.0,58,0.00,,BKN055,0.01,VWS V14.00,2013-10-10 18:10:00,
2013-10-10 14:11:00,72.6,51.2,30.12,ENE,65,0.0,4.0,47,0.00,,BKN055,0.01,VWS V14.00,2013-10-10 18:11:00,
2013-10-10 14:20:00,71.1,55.6,30.14,SE,140,0.0,3.0,58,0.00,,BKN055,0.01,VWS V14.00,2013-10-10 18:20:00,
2013-10-10 14:21:00,72.5,53.4,30.12,NNE,28,1.0,6.0,51,0.00,,BKN055,0.01,VWS V14.00,2013-10-10 18:21:00,
2013-10-10 14:30:00,71.9,52.8,30.14,SSE,149,0.0,1.0,51,0.00,,BKN055,0.01,VWS V14.00,2013-10-10 18:30:00,
2013-10-10 14:31:00,72.6,51.2,30.12,WSW,251,0.0,4.0,47,0.00,,BKN055,0.01,VWS V14.00,2013-10-10 18:31:00,
2013-10-10 14:40:00,72.0,52.9,30.13,East,97,0.0,1.0,51,0.00,,BKN055,0.01,VWS V14.00,2013-10-10 18:40:00,
2013-10-10 14:41:00,72.6,51.8,30.11,ESE,113,0.0,5.0,48,0.00,,BKN055,0.01,VWS V14.00,2013-10-10 18:41:00,
2013-10-10 14:50:00,72.3,53.7,30.13,South,179,0.0,0.0,52,0.00,,BKN055,0.01,VWS V14.00,2013-10-10 18:50:00,
2013-10-10 14:51:00,72.6,51.2,30.10,NW,305,1.0,5.0,47,0.00,,BKN055,0.01,VWS V14.00,2013-10-10 18:51:00,
2013-10-10 15:00:00,72.6,51.8,30.12,ENE,63,0.0,4.0,48,0.00,,BKN055,0.01,VWS V14.00,2013-10-10 19:00:00,
2013-10-10 15:01:00,72.6,52.4,30.10,North,11,0.0,6.0,49,0.00,,BKN055,0.01,VWS V14.00,2013-10-10 19:01:00,
2013-10-10 15:10:00,72.6,51.2,30.12,ENE,65,0.0,4.0,47,0.00,,BKN055,0.01,VWS V14.00,2013-10-10 19:10:00,
2013-10-10 15:11:00,72.9,52.1,30.10,North,360,0.0,8.0,48,0.00,,BKN055,0.01,VWS V14.00,2013-10-10 19:11:00,
2013-10-10 15:20:00,72.5,53.4,30.12,NNE,28,1.0,6.0,51,0.00,,BKN055,0.01,VWS V14.00,2013-10-10 19:20:00,
2013-10-10 15:21:00,73.1,51.7,30.09,NNW,343,1.0,7.0,47,0.00,,BKN055,0.01,VWS V14.00,2013-10-10 19:21:00,
2013-10-10 15:30:00,72.6,51.2,30.12,WSW,251,0.0,4.0,47,0.00,,BKN055,0.01,VWS V14.00,2013-10-10 19:30:00,
2013-10-10 15:31:00,73.2,54.5,30.09,NW,306,0.0,3.0,52,0.00,,BKN055,0.01,VWS V14.00,2013-10-10 19:31:00,
2013-10-10 15:40:00,72.6,51.8,30.11,ESE,113,0.0,5.0,48,0.00,,BKN055,0.01,VWS V14.00,2013-10-10 19:40:00,
2013-10-10 15:41:00,73.9,51.2,30.10,NNE,18,0.0,3.0,45,0.00,,BKN055,0.01,VWS V14.00,2013-10-10 19:41:00,
2013-10-10 15:50:00,72.6,51.2,30.10,NW,305,1.0,5.0,47,0.00,,BKN055,0.01,VWS V14.00,2013-10-10 19:50:00,
2013-10-10 15:51:00,73.8,50.5,30.10,WNW,292,0.0,6.0,44,0.00,,BKN055,0.01,VWS V14.00,2013-10-10 19:51:00,
2013-10-10 16:00:00,72.6,52.4,30.10,North,11,0.0,6.0,49,0.00,,BKN055,0.01,VWS V14.00,2013-10-10 20:00:00,
2013-10-10 16:01:00,74.0,52.5,30.10,ENE,78,0.0,1.0,47,0.00,,BKN055,0.01,VWS V14.00,2013-10-10 20:01:00,
2013-10-10 16:10:00,72.9,52.1,30.10,North,360,0.0,8.0,48,0.00,,BKN055,0.01,VWS V14.00,2013-10-10 20:10:00,
2013-10-10 16:11:00,73.8,51.8,30.09,East,85,0.0,3.0,46,0.00,,BKN055,0.01,VWS V14.00,2013-10-10 20:11:00,
2013-10-10 16:20:00,73.1,51.7,30.09,NNW,343,1.0,7.0,47,0.00,,BKN055,0.01,VWS V14.00,2013-10-10 20:20:00,
2013-10-10 16:21:00,73.5,51.5,30.09,NNW,344,0.0,4.0,46,0.00,,BKN055,0.01,VWS V14.00,2013-10-10 20:21:00,
2013-10-10 16:30:00,73.2,54.5,30.09,NW,306,0.0,3.0,52,0.00,,BKN055,0.01,VWS V14.00,2013-10-10 20:30:00,
2013-10-10 16:31:00,73.9,52.4,30.09,East,80,0.0,1.0,47,0.00,,BKN055,0.01,VWS V14.00,2013-10-10 20:31:00,
2013-10-10 16:40:00,73.9,51.2,30.10,NNE,18,0.0,3.0,45,0.00,,BKN055,0.01,VWS V14.00,2013-10-10 20:40:00,
2013-10-10 16:41:00,74.0,53.7,30.08,East,80,0.0,0.0,49,0.00,,BKN055,0.01,VWS V14.00,2013-10-10 20:41:00,
2013-10-10 16:50:00,73.8,50.5,30.10,WNW,292,0.0,6.0,44,0.00,,BKN055,0.01,VWS V14.00,2013-10-10 20:50:00,
2013-10-10 16:51:00,73.9,55.7,30.08,ENE,57,0.0,1.0,53,0.00,,BKN055,0.01,VWS V14.00,2013-10-10 20:51:00,
2013-10-10 17:00:00,74.0,52.5,30.10,ENE,78,0.0,1.0,47,0.00,,BKN055,0.01,VWS V14.00,2013-10-10 21:00:00,
2013-10-10 17:01:00,74.6,54.8,30.08,ENE,57,0.0,0.0,50,0.00,,BKN055,0.01,VWS V14.00,2013-10-10 21:01:00,
2013-10-10 17:10:00,73.8,51.8,30.09,East,85,0.0,3.0,46,0.00,,BKN055,0.01,VWS V14.00,2013-10-10 21:10:00,
2013-10-10 17:11:00,75.6,56.8,30.08,NE,56,0.0,0.0,52,0.00,,BKN055,0.01,VWS V14.00,2013-10-10 21:11:00,
2013-10-10 17:20:00,73.5,51.5,30.09,NNW,344,0.0,4.0,46,0.00,,BKN055,0.01,VWS V14.00,2013-10-10 21:20:00,
2013-10-10 17:21:00,75.3,54.8,30.07,ENE,57,0.0,0.0,49,0.00,,BKN055,0.01,VWS V14.00,2013-10-10 21:21:00,
2013-10-10 17:30:00,73.9,52.4,30.09,East,80,0.0,1.0,47,0.00,,BKN055,0.01,VWS V14.00,2013-10-10 21:30:00,
2013-10-10 17:31:00,74.6,55.3,30.08,NE,56,0.0,0.0,51,0.00,,BKN055,0.01,VWS V14.00,2013-10-10 21:31:00,
2013-10-10 17:40:00,74.0,53.7,30.08,East,80,0.0,0.0,49,0.00,,BKN055,0.01,VWS V14.00,2013-10-10 21:40:00,
2013-10-10 17:41:00,74.6,55.3,30.07,ENE,60,0.0,0.0,51,0.00,,BKN055,0.01,VWS V14.00,2013-10-10 21:41:00,
2013-10-10 17:50:00,73.9,55.7,30.08,ENE,57,0.0,1.0,53,0.00,,BKN055,0.01,VWS V14.00,2013-10-10 21:50:00,
2013-10-10 17:51:00,73.5,54.3,30.07,ENE,76,0.0,0.0,51,0.00,,BKN055,0.01,VWS V14.00,2013-10-10 21:51:00,
2013-10-10 18:00:00,74.6,54.8,30.08,ENE,57,0.0,0.0,50,0.00,,BKN055,0.01,VWS V14.00,2013-10-10 22:00:00,
2013-10-10 18:01:00,73.0,54.9,30.07,ENE,76,0.0,0.0,53,0.00,,BKN055,0.01,VWS V14.00,2013-10-10 22:01:00,
2013-10-10 18:10:00,75.6,56.8,30.08,NE,56,0.0,0.0,52,0.00,,BKN055,0.01,VWS V14.00,2013-10-10 22:10:00,
2013-10-10 18:11:00,72.6,54.0,30.07,ENE,76,0.0,0.0,52,0.00,,BKN055,0.01,VWS V14.00,2013-10-10 22:11:00,
2013-10-10 18:20:00,75.3,54.8,30.07,ENE,57,0.0,0.0,49,0.00,,BKN055,0.01,VWS V14.00,2013-10-10 22:20:00,
2013-10-10 18:21:00,73.0,56.9,30.07,ENE,77,0.0,0.0,57,0.00,,BKN055,0.01,VWS V14.00,2013-10-10 22:21:00,
2013-10-10 18:30:00,74.6,55.3,30.08,NE,56,0.0,0.0,51,0.00,,BKN055,0.01,VWS V14.00,2013-10-10 22:30:00,
2013-10-10 18:31:00,72.2,57.6,30.07,ENE,76,0.0,0.0,60,0.00,,BKN055,0.01,VWS V14.00,2013-10-10 22:31:00,
2013-10-10 18:40:00,74.6,55.3,30.07,ENE,60,0.0,0.0,51,0.00,,BKN055,0.01,VWS V14.00,2013-10-10 22:40:00,
2013-10-10 18:41:00,70.2,56.6,30.06,ENE,76,0.0,0.0,62,0.00,,BKN055,0.01,VWS V14.00,2013-10-10 22:41:00,
2013-10-10 18:50:00,73.5,54.3,30.07,ENE,76,0.0,0.0,51,0.00,,BKN055,0.01,VWS V14.00,2013-10-10 22:50:00,
2013-10-10 18:51:00,66.9,55.6,30.06,ENE,77,0.0,0.0,67,0.00,,BKN055,0.01,VWS V14.00,2013-10-10 22:51:00,
2013-10-10 19:00:00,73.0,54.9,30.07,ENE,76,0.0,0.0,53,0.00,,BKN055,0.01,VWS V14.00,2013-10-10 23:00:00,
2013-10-10 19:01:00,63.6,54.8,30.06,ENE,77,0.0,0.0,73,0.00,,BKN055,0.01,VWS V14.00,2013-10-10 23:01:00,
2013-10-10 19:10:00,72.6,54.0,30.07,ENE,76,0.0,0.0,52,0.00,,BKN055,0.01,VWS V14.00,2013-10-10 23:10:00,
2013-10-10 19:11:00,61.3,54.0,30.06,ENE,77,0.0,0.0,77,0.00,,BKN055,0.01,VWS V14.00,2013-10-10 23:11:00,
2013-10-10 19:20:00,73.0,56.9,30.07,ENE,77,0.0,0.0,57,0.00,,BKN055,0.01,VWS V14.00,2013-10-10 23:20:00,
2013-10-10 19:21:00,59.8,54.0,30.06,ENE,76,0.0,0.0,81,0.00,,BKN055,0.01,VWS V14.00,2013-10-10 23:21:00,
2013-10-10 19:30:00,72.2,57.6,30.07,ENE,76,0.0,0.0,60,0.00,,BKN055,0.01,VWS V14.00,2013-10-10 23:30:00,
2013-10-10 19:31:00,58.7,53.6,30.06,ENE,77,0.0,0.0,83,0.00,,BKN055,0.01,VWS V14.00,2013-10-10 23:31:00,
2013-10-10 19:40:00,70.2,56.6,30.06,ENE,76,0.0,0.0,62,0.00,,BKN055,0.01,VWS V14.00,2013-10-10 23:40:00,
2013-10-10 19:41:00,57.5,53.3,30.06,ENE,76,0.0,0.0,86,0.00,,BKN055,0.01,VWS V14.00,2013-10-10 23:41:00,
2013-10-10 19:50:00,66.9,55.6,30.06,ENE,77,0.0,0.0,67,0.00,,BKN055,0.01,VWS V14.00,2013-10-10 23:50:00,
2013-10-10 19:51:00,56.9,53.1,30.06,ENE,77,0.0,0.0,87,0.00,,BKN055,0.01,VWS V14.00,2013-10-10 23:51:00,
2013-10-10 20:00:00,63.6,54.8,30.06,ENE,77,0.0,0.0,73,0.00,,BKN055,0.01,VWS V14.00,2013-10-11 00:00:00,
2013-10-10 20:01:00,56.5,52.7,30.06,ENE,77,0.0,0.0,87,0.00,,BKN055,0.01,VWS V14.00,2013-10-11 00:01:00,
2013-10-10 20:10:00,61.3,54.0,30.06,ENE,77,0.0,0.0,77,0.00,,BKN055,0.01,VWS V14.00,2013-10-11 00:10:00,
2013-10-10 20:11:00,56.1,52.6,30.06,ENE,77,0.0,0.0,88,0.00,,BKN055,0.01,VWS V14.00,2013-10-11 00:11:00,
2013-10-10 20:20:00,59.8,54.0,30.06,ENE,76,0.0,0.0,81,0.00,,BKN055,0.01,VWS V14.00,2013-10-11 00:20:00,
2013-10-10 20:21:00,55.5,52.3,30.06,ENE,77,0.0,0.0,89,0.00,,BKN055,0.01,VWS V14.00,2013-10-11 00:21:00,
2013-10-10 20:30:00,58.7,53.6,30.06,ENE,77,0.0,0.0,83,0.00,,BKN055,0.01,VWS V14.00,2013-10-11 00:30:00,
2013-10-10 20:31:00,55.1,52.2,30.06,ENE,77,0.0,1.0,90,0.00,,BKN055,0.01,VWS V14.00,2013-10-11 00:31:00,
2013-10-10 20:40:00,57.5,53.3,30.06,ENE,76,0.0,0.0,86,0.00,,BKN055,0.01,VWS V14.00,2013-10-11 00:40:00,
2013-10-10 20:41:00,54.8,52.2,30.06,NNE,28,0.0,1.0,91,0.00,,BKN055,0.01,VWS V14.00,2013-10-11 00:41:00,
2013-10-10 20:50:00,56.9,53.1,30.06,ENE,77,0.0,0.0,87,0.00,,BKN055,0.01,VWS V14.00,2013-10-11 00:50:00,
2013-10-10 20:51:00,54.4,51.8,30.06,NNE,28,0.0,1.0,91,0.00,,BKN055,0.01,VWS V14.00,2013-10-11 00:51:00,
2013-10-10 21:00:00,56.5,52.7,30.06,ENE,77,0.0,0.0,87,0.00,,BKN055,0.01,VWS V14.00,2013-10-11 01:00:00,
2013-10-10 21:01:00,54.0,51.4,30.06,North,11,0.0,2.0,91,0.00,,BKN055,0.01,VWS V14.00,2013-10-11 01:01:00,
2013-10-10 21:10:00,56.1,52.6,30.06,ENE,77,0.0,0.0,88,0.00,,BKN055,0.01,VWS V14.00,2013-10-11 01:10:00,
2013-10-10 21:11:00,53.6,51.3,30.06,North,11,0.0,2.0,92,0.00,,BKN055,0.01,VWS V14.00,2013-10-11 01:11:00,
2013-10-10 21:20:00,55.5,52.3,30.06,ENE,77,0.0,0.0,89,0.00,,BKN055,0.01,VWS V14.00,2013-10-11 01:20:00,
2013-10-10 21:21:00,53.4,51.1,30.06,North,11,0.0,0.0,92,0.00,,BKN055,0.01,VWS V14.00,2013-10-11 01:21:00,
2013-10-10 21:30:00,55.1,52.2,30.06,ENE,77,0.0,1.0,90,0.00,,BKN055,0.01,VWS V14.00,2013-10-11 01:30:00,
2013-10-10 21:31:00,53.2,51.2,30.06,North,10,0.0,0.0,93,0.00,,BKN055,0.01,VWS V14.00,2013-10-11 01:31:00,
2013-10-10 21:40:00,54.8,52.2,30.06,NNE,28,0.0,1.0,91,0.00,,BKN055,0.01,VWS V14.00,2013-10-11 01:40:00,
2013-10-10 21:41:00,52.9,50.9,30.06,North,11,0.0,0.0,93,0.00,,BKN055,0.01,VWS V14.00,2013-10-11 01:41:00,
2013-10-10 21:50:00,54.4,51.8,30.06,NNE,28,0.0,1.0,91,0.00,,BKN055,0.01,VWS V14.00,2013-10-11 01:50:00,
2013-10-10 21:51:00,52.6,50.6,30.06,North,360,0.0,2.0,93,0.00,,BKN055,0.01,VWS V14.00,2013-10-11 01:51:00,
2013-10-10 22:00:00,54.0,51.4,30.06,North,11,0.0,2.0,91,0.00,,BKN055,0.01,VWS V14.00,2013-10-11 02:00:00,
2013-10-10 22:01:00,52.5,50.5,30.07,North,5,0.0,0.0,93,0.00,,BKN055,0.01,VWS V14.00,2013-10-11 02:01:00,
2013-10-10 22:10:00,53.6,51.3,30.06,North,11,0.0,2.0,92,0.00,,BKN055,0.01,VWS V14.00,2013-10-11 02:10:00,
2013-10-10 22:11:00,52.1,50.1,30.06,North,360,0.0,0.0,93,0.00,,BKN055,0.01,VWS V14.00,2013-10-11 02:11:00,
2013-10-10 22:20:00,53.4,51.1,30.06,North,11,0.0,0.0,92,0.00,,BKN055,0.01,VWS V14.00,2013-10-11 02:20:00,
2013-10-10 22:21:00,51.9,50.2,30.06,North,5,0.0,1.0,94,0.00,,BKN055,0.01,VWS V14.00,2013-10-11 02:21:00,
2013-10-10 22:30:00,53.2,51.2,30.06,North,10,0.0,0.0,93,0.00,,BKN055,0.01,VWS V14.00,2013-10-11 02:30:00,
2013-10-10 22:31:00,51.6,49.9,30.06,North,360,0.0,1.0,94,0.00,,BKN055,0.01,VWS V14.00,2013-10-11 02:31:00,
2013-10-10 22:40:00,52.9,50.9,30.06,North,11,0.0,0.0,93,0.00,,BKN055,0.01,VWS V14.00,2013-10-11 02:40:00,
2013-10-10 22:41:00,51.5,49.8,30.07,North,5,0.0,1.0,94,0.00,,BKN055,0.01,VWS V14.00,2013-10-11 02:41:00,
2013-10-10 22:50:00,52.6,50.6,30.06,North,360,0.0,2.0,93,0.00,,BKN055,0.01,VWS V14.00,2013-10-11 02:50:00,
2013-10-10 22:51:00,51.3,49.9,30.07,North,5,0.0,0.0,95,0.00,,BKN055,0.01,VWS V14.00,2013-10-11 02:51:00,
2013-10-10 23:00:00,52.5,50.5,30.07,North,5,0.0,0.0,93,0.00,,BKN055,0.01,VWS V14.00,2013-10-11 03:00:00,
2013-10-10 23:01:00,50.9,49.5,30.06,North,5,0.0,0.0,95,0.00,,BKN055,0.01,VWS V14.00,2013-10-11 03:01:00,
2013-10-10 23:10:00,52.1,50.1,30.06,North,360,0.0,0.0,93,0.00,,BKN055,0.01,VWS V14.00,2013-10-11 03:10:00,
2013-10-10 23:11:00,50.7,49.3,30.06,North,5,0.0,0.0,95,0.00,,BKN055,0.01,VWS V14.00,2013-10-11 03:11:00,
2013-10-10 23:20:00,51.9,50.2,30.06,North,5,0.0,1.0,94,0.00,,BKN055,0.01,VWS V14.00,2013-10-11 03:20:00,
2013-10-10 23:21:00,50.5,49.1,30.06,North,5,0.0,1.0,95,0.00,,BKN055,0.01,VWS V14.00,2013-10-11 03:21:00,
2013-10-10 23:30:00,51.6,49.9,30.06,North,360,0.0,1.0,94,0.00,,BKN055,0.01,VWS V14.00,2013-10-11 03:30:00,
2013-10-10 23:31:00,50.2,48.8,30.06,North,5,0.0,0.0,95,0.00,,BKN055,0.01,VWS V14.00,2013-10-11 03:31:00,
2013-10-10 23:40:00,51.5,49.8,30.07,North,5,0.0,1.0,94,0.00,,BKN055,0.01,VWS V14.00,2013-10-11 03:40:00,
2013-10-10 23:41:00,49.9,48.8,30.06,North,360,0.0,2.0,96,0.00,,BKN055,0.01,VWS V14.00,2013-10-11 03:41:00,
2013-10-10 23:50:00,51.3,49.9,30.07,North,5,0.0,0.0,95,0.00,,BKN055,0.01,VWS V14.00,2013-10-11 03:50:00,
2013-10-10 23:51:00,49.7,48.6,30.06,North,5,0.0,1.0,96,0.00,,BKN055,0.01,VWS V14.00,2013-10-11 03:51:00,